This is the latest recevied weather packets stored in our database for station/object HP3ICC-24. If no packets are shown the sender has not sent any weather packets the latest 10 day(s).
| Time | Temp. | Humidity | Pressure | Rain* | Wind** | Luminosity | Snow |
|---|---|---|---|---|---|---|---|
| 1777480743 | 22.22° C | 53% | 1012 hPa | 0 mm | - | - | - |
| 1777479602 | 21.11° C | 56% | 1013 hPa | 0 mm | - | - | - |
| 1777479542 | 21.11° C | 56% | 1013 hPa | 0 mm | - | - | - |
| 1777478402 | 21.11° C | 56% | 1013 hPa | 0 mm | - | - | - |
| 1777478342 | 21.11° C | 56% | 1013 hPa | 0 mm | - | - | - |
| 1777477201 | 21.11° C | 57% | 1013 hPa | 0 mm | - | - | - |
| 1777477141 | 21.11° C | 57% | 1013 hPa | 0 mm | - | - | - |
| 1777476001 | 20° C | 60% | 1013 hPa | 0 mm | - | - | - |
| 1777475941 | 20° C | 60% | 1013 hPa | 0 mm | - | - | - |
| 1777474800 | 20° C | 59% | 1013 hPa | 0 mm | - | - | - |
| 1777474740 | 20° C | 59% | 1013 hPa | 0 mm | - | - | - |
| 1777473600 | 20° C | 60% | 1012 hPa | 0 mm | - | - | - |
| 1777473540 | 20° C | 60% | 1012 hPa | 0 mm | - | - | - |
| 1777472399 | 19.44° C | 68% | 1012 hPa | 0 mm | - | - | - |
| 1777472339 | 19.44° C | 68% | 1012 hPa | 0 mm | - | - | - |
| 1777471199 | 19.44° C | 63% | 1012 hPa | 0 mm | - | - | - |
| 1777471138 | 19.44° C | 63% | 1012 hPa | 0 mm | - | - | - |
| 1777469998 | 19.44° C | 63% | 1012 hPa | 0 mm | - | - | - |
| 1777469938 | 19.44° C | 63% | 1012 hPa | 0 mm | - | - | - |
| 1777468797 | 17.22° C | 65% | 1011 hPa | 0 mm | - | - | - |
| 1777468737 | 17.22° C | 65% | 1011 hPa | 0 mm | - | - | - |
| 1777467597 | 17.78° C | 65% | 1013 hPa | 0 mm | - | - | - |
| 1777467537 | 17.78° C | 65% | 1013 hPa | 0 mm | - | - | - |
| 1777466396 | 14.44° C | 65% | 1013 hPa | 0 mm | - | - | - |
| 1777466336 | 14.44° C | 65% | 1013 hPa | 0 mm | - | - | - |
* Rain latest hour (hover to see other rain measurements)
** Current wind speed in m/s (hover to see current wind gust speed)